Location: ?????????
(54.7630°N, 39.4991°E)
Time: 07:41:05
(UTC+00:00)

RESURS DK-1 - Pass Details

Date: 14 April 2026
Orbit: 524 x 530 km, 69.9° (Epoch: 10 May)

Event Time Altitude Azimuth Distance (km) Brightness Sun altitude
Exits shadow 18:42:35 36° 105° (ESE) 854 2.8 -17.4°
Drops below altitude 10° 18:45:58 10° 48° (NE) 1,779 4.9 -17.8°
Sets 18:48:16 0° 40° (NE) 2,674 6.0 -18.0°
